Location: Unspecified
(42.9300°N, 71.1866°W)
Time: 03:33:49
(UTC-05:00)

GENESIS II - Visible Passes

Search period start: 23 November 2014 00:00
Search period end: 03 December 2014 00:00
Orbit: 522 x 541 km, 64.5° (Epoch: 21 November)

Date Brightness Start Highest point End Pass type
(mag) Time Alt. Az. Time Alt. Az. Time Alt. Az.
23 Nov 5.7 05:34:06 10° S 05:37:49 40° ESE 05:41:34 10° NE visible
24 Nov 5.3 05:23:17 10° SSW 05:27:05 47° ESE 05:30:56 10° NE visible
25 Nov 5.0 05:12:29 10° SSW 05:16:20 55° ESE 05:20:15 10° NE visible
26 Nov 4.6 05:01:41 10° SSW 05:05:35 64° ESE 05:09:33 10° NE visible
27 Nov 4.3 04:53:00 30° SSW 04:54:50 75° ESE 04:58:49 10° NE visible
28 Nov 4.2 04:44:12 82° ENE 04:44:12 82° ENE 04:48:04 10° NE visible
28 Nov 6.1 06:20:35 10° WNW 06:22:39 14° NW 06:24:44 10° N visible
29 Nov 5.4 04:34:54 35° NNE 04:34:54 35° NNE 04:37:18 10° NNE visible
29 Nov 6.2 06:10:16 10° WNW 06:11:58 12° NW 06:13:43 10° N visible
30 Nov 6.4 04:25:17 19° NNE 04:25:17 19° NNE 04:26:30 10° NNE visible
30 Nov 6.3 06:00:38 11° NW 06:01:16 11° NW 06:02:35 10° NNW visible
01 Dec 7.0 04:15:26 12° NNE 04:15:26 12° NNE 04:15:41 10° NNE visible
01 Dec 6.5 05:50:46 10° NNW 05:50:46 10° NNW 05:51:13 10° NNW visible
